TimeEDT,TemperatureF,Dew PointF,Humidity,Sea Level PressureIn,VisibilityMPH,Wind Direction,Wind SpeedMPH,Gust SpeedMPH,PrecipitationIn,Events,Conditions,WindDirDegrees,DateUTC
12:54 AM,69.1,66.9,93,30.10,7.0,SE,4.6,-,N/A,,Mostly Cloudy,140,2013-05-20 04:54:00
1:22 AM,69.8,68.0,94,30.10,6.0,SE,3.5,-,N/A,,Overcast,140,2013-05-20 05:22:00
1:54 AM,69.1,66.9,93,30.09,7.0,SSE,4.6,-,N/A,,Overcast,150,2013-05-20 05:54:00
2:54 AM,68.0,66.9,96,30.07,5.0,SSE,4.6,-,N/A,,Overcast,150,2013-05-20 06:54:00
4:54 AM,69.1,68.0,96,30.08,6.0,Calm,Calm,-,N/A,,Mostly Cloudy,0,2013-05-20 08:54:00
5:54 AM,69.1,68.0,96,30.09,7.0,SSE,3.5,-,N/A,,Mostly Cloudy,150,2013-05-20 09:54:00
6:54 AM,69.1,68.0,96,30.11,5.0,SSE,4.6,-,N/A,,Scattered Clouds,150,2013-05-20 10:54:00
7:30 AM,69.8,68.0,94,30.11,6.0,SSE,4.6,-,N/A,,Mostly Cloudy,150,2013-05-20 11:30:00
7:37 AM,69.8,68.0,94,30.12,7.0,Calm,Calm,-,N/A,,Mostly Cloudy,0,2013-05-20 11:37:00
7:41 AM,69.8,69.8,100,30.12,6.0,West,8.1,-,N/A,,Mostly Cloudy,280,2013-05-20 11:41:00
7:54 AM,70.0,68.0,93,30.12,3.0,WNW,5.8,-,0.01,Rain,Light Rain,300,2013-05-20 11:54:00
8:14 AM,69.8,66.2,88,30.13,1.5,SW,4.6,-,0.03,Rain,Rain,230,2013-05-20 12:14:00
8:16 AM,69.8,66.2,88,30.13,0.8,SW,5.8,-,0.06,Rain,Heavy Rain,220,2013-05-20 12:16:00
8:42 AM,68.0,66.2,94,30.13,1.0,South,4.6,-,0.41,Rain,Rain,190,2013-05-20 12:42:00
8:45 AM,68.0,66.2,94,30.13,1.8,South,4.6,-,0.41,Rain,Light Rain,190,2013-05-20 12:45:00
8:54 AM,68.0,66.9,96,30.14,1.8,South,4.6,-,0.44,Rain,Rain,190,2013-05-20 12:54:00
9:04 AM,68.0,66.2,94,30.13,2.5,SSW,3.5,-,0.01,Rain,Light Rain,210,2013-05-20 13:04:00
9:17 AM,68.0,66.2,94,30.13,4.0,Calm,Calm,-,0.02,Rain,Light Rain,0,2013-05-20 13:17:00
9:54 AM,68.0,66.9,96,30.14,6.0,ESE,5.8,-,0.05,Rain,Light Rain,120,2013-05-20 13:54:00
10:28 AM,69.8,68.0,94,30.14,9.0,SE,5.8,-,0.00,,Mostly Cloudy,130,2013-05-20 14:28:00
10:42 AM,69.8,68.0,94,30.14,1.0,South,3.5,-,0.07,Rain,Heavy Rain,180,2013-05-20 14:42:00
10:45 AM,69.8,68.0,94,30.14,0.5,South,6.9,-,0.19,Fog-Rain,Heavy Rain,180,2013-05-20 14:45:00
10:54 AM,69.1,68.0,96,30.14,0.2,SE,6.9,-,0.42,Fog-Rain,Heavy Rain,130,2013-05-20 14:54:00
11:00 AM,69.8,68.0,94,30.13,2.0,ESE,5.8,-,0.01,Rain,Light Rain,120,2013-05-20 15:00:00
11:07 AM,69.8,69.8,100,30.13,8.0,SE,5.8,-,0.01,,Overcast,130,2013-05-20 15:07:00
11:39 AM,69.8,69.8,100,30.14,6.0,SSE,9.2,-,0.01,Rain,Light Rain,150,2013-05-20 15:39:00
11:54 AM,69.1,68.0,96,30.14,4.0,Variable,3.5,-,0.04,Rain,Light Rain,0,2013-05-20 15:54:00
12:06 PM,69.8,68.0,94,30.14,2.5,South,3.5,-,0.02,Rain,Rain,190,2013-05-20 16:06:00
12:17 PM,69.8,68.0,94,30.13,3.0,SSE,3.5,-,0.04,Rain,Light Rain,150,2013-05-20 16:17:00
12:54 PM,72.0,70.0,93,30.11,10.0,SE,5.8,-,0.07,,Overcast,140,2013-05-20 16:54:00
1:03 PM,73.4,71.6,94,30.10,10.0,SSE,5.8,-,N/A,,Mostly Cloudy,150,2013-05-20 17:03:00
1:38 PM,73.4,71.6,94,30.10,10.0,Variable,5.8,-,N/A,,Mostly Cloudy,0,2013-05-20 17:38:00
1:54 PM,73.0,70.0,90,30.10,10.0,SSE,8.1,-,N/A,,Mostly Cloudy,160,2013-05-20 17:54:00
2:32 PM,75.2,69.8,83,30.09,10.0,South,6.9,-,N/A,,Mostly Cloudy,180,2013-05-20 18:32:00
2:43 PM,77.0,69.8,78,30.09,10.0,SSW,10.4,-,N/A,,Mostly Cloudy,200,2013-05-20 18:43:00
2:54 PM,75.0,69.1,82,30.08,10.0,SSW,8.1,-,N/A,,Mostly Cloudy,200,2013-05-20 18:54:00
3:54 PM,75.0,66.9,76,30.07,10.0,South,6.9,-,N/A,,Scattered Clouds,190,2013-05-20 19:54:00
4:54 PM,73.9,66.9,79,30.06,10.0,South,6.9,-,N/A,,Partly Cloudy,180,2013-05-20 20:54:00
5:54 PM,72.0,68.0,87,30.05,10.0,South,4.6,-,N/A,,Mostly Cloudy,190,2013-05-20 21:54:00
6:54 PM,72.0,68.0,87,30.05,10.0,SSE,4.6,-,N/A,,Overcast,160,2013-05-20 22:54:00
7:06 PM,71.6,68.0,88,30.05,10.0,SSE,5.8,-,N/A,,Overcast,160,2013-05-20 23:06:00
7:45 PM,71.6,69.8,94,30.05,10.0,South,3.5,-,N/A,,Overcast,180,2013-05-20 23:45:00
7:54 PM,71.1,69.1,93,30.05,10.0,Calm,Calm,-,N/A,,Overcast,0,2013-05-20 23:54:00
8:54 PM,70.0,69.1,97,30.06,7.0,SE,3.5,-,N/A,,Mostly Cloudy,130,2013-05-21 00:54:00
9:22 PM,71.6,69.8,94,30.06,7.0,Calm,Calm,-,N/A,,Overcast,0,2013-05-21 01:22:00
10:54 PM,71.1,70.0,96,30.07,6.0,South,3.5,-,N/A,,Overcast,190,2013-05-21 02:54:00
11:54 PM,71.1,69.1,93,30.05,6.0,Variable,3.5,-,N/A,,Overcast,0,2013-05-21 03:54:00